Miscellaneous Local Product
Issued by NWS North Platte, NE

Home | Current Version | Previous Version | Text Only | Print | Product List | Glossary On
Versions: 1 2 3 4 5 6 7 8 9 10 11 12 13 14 15 16 17 18 19 20 21 22 23 24 25 26 27 28 29 30 31 32 33 34 35 36 37 38 39 40 41 42 43 44 45 46 47 48 49 50
000
AXUS43 KLBF 221210
MISLBF


WESTERN AND NORTH CENTRAL NEBRASKA HOURLY WEATHER ROUNDUP
NATIONAL WEATHER SERVICE NORTH PLATTE NE
600 AM CST MON DEC 22 2014

***STATIONS NOT REPORTING VARIABLES SUCH AS SKY/WEATHER OR
PRESSURE ARE PROVIDED BY THE NEBRASKA DEPARTMENT OF
ROADS...RAWS...AND APRS NETWORKS...AND ARE NOT UNDER
NATIONAL WEATHER SERVICE QUALITY CONTROL***

...OBSERVATIONS IN AND NEAR THE EASTERN PANHANDLE OF NEBRASKA...

CITY           SKY/WX    TMP DP  RH WIND       PRES   REMARKS
PINE RIDGE     CLOUDY    36  31  82 W6        29.57F WCI  31
CHADRON        MOCLDY    36  29  75 W20       29.63R WCI  25
ALLIANCE       CLOUDY    35  27  72 NW22      29.63R WCI  23
SIDNEY         MIX PCPN  35  26  69 NW28G35   29.66R WCI  22
WHITECLAY        N/A     35  28  76 W16         N/A  WCI  25
CRESCENT LAKE    N/A     34  30  86 NW13G23     N/A  WCI  25
LISCO            N/A     37  28  69 W16         N/A  WCI  28
BIG SPRINGS      N/A     37  32  81 NW9         N/A  WCI  30
$$

...OBSERVATIONS IN NORTH CENTRAL NEBRASKA...

CITY           SKY/WX    TMP DP  RH WIND       PRES   REMARKS
VALENTINE      PTCLDY    37  33  85 NW14      29.50S WCI  28
THEDFORD       CLOUDY    37  34  90 NW12      29.54S WCI  29
AINSWORTH      CLOUDY    36  34  92 W12       29.50S WCI  28
O`NEILL        CLOUDY    38  38 100 NW15G22   29.47R FOG     WCI  30
BROKEN BOW     CLOUDY    40  35  83 NW20G26   29.52R WCI  30
BROWNLEE         N/A     38  35  88 W16         N/A  WCI  29
SPRINGVIEW       N/A     37  34  90 W7          N/A  WCI  31
BREWSTER         N/A     38  35  90 NW14        N/A  WCI  29
ROSE             N/A     37  37  99 SW10        N/A  WCI  30
SARGENT          N/A     39  36  90 NW7G14      N/A  WCI  34
COMSTOCK         N/A     41  37  87 NW13        N/A
CHAMBERS         N/A     38  37  98 N5G12       N/A  WCI  34
EWING            N/A     38  37  97 CALM        N/A
$$

...OBSERVATIONS IN SOUTHWEST NEBRASKA AND FAR NORTHEAST COLORADO...

CITY           SKY/WX    TMP DP  RH WIND       PRES   REMARKS
WRAY           FAIR      37  30  78 W16G24    29.65R WCI  27
HOLYOKE        FAIR      37  28  70 NW14G30   29.65R WCI  29
IMPERIAL       MOCLDY    37  27  67 NW15      29.62R WCI  28
OGALLALA       MOCLDY    36  30  80 NW14      29.62R WCI  27
NORTH PLATTE   CLOUDY    36  32  85 NW13      29.58R WCI  27
MCCOOK         MOCLDY    39  32  76 NW15      29.59R WCI  31
LEXINGTON      CLOUDY    37  33  87 NW13      29.55R WCI  28
PAXTON           N/A     37  33  85 NW6         N/A  WCI  32
BRADY            N/A     35  32  88 MISG        N/A
GOTHENBURG       N/A     37  32  83 W7          N/A  WCI  31
CALLAWAY         N/A     37  35  92 NW13        N/A  WCI  29
$$

...NORTH PLATTE AREA...

CITY           SKY/WX    TMP DP  RH WIND       PRES   REMARKS
AIRPORT        CLOUDY    36  32  85 NW13      29.58R WCI  27
DOWNTOWN         N/A     37  33  86 W3          N/A
$$

...SOME WEATHER OBSERVATIONS FROM AROUND THE REGION...

CITY           SKY/WX    TMP DP  RH WIND       PRES   REMARKS
DENVER         MOCLDY    30  23  75 NW9       29.73R WCI  22
LARAMIE        MOCLDY    23  15  71 NW17      29.72S WCI   9
CHEYENNE       PTCLDY    28  18  66 NW15G22   29.70S WCI  16
SCOTTSBLUFF    MOCLDY    35  27  72 W10       29.68S WCI  27
RAPID CITY     CLOUDY    42  23  46 NW26G43   29.52S
PIERRE         CLOUDY    38  34  85 SW8       29.42F WCI  32
WINNER         CLOUDY    38  35  89 W14       29.46S WCI  30
SIOUX FALLS    LGT RAIN  40  39  97 S12       29.46F WCI  33
OMAHA          LGT RAIN  43  41  93 S15       29.56F
GRAND ISLAND   CLOUDY    38  36  92 W9        29.51S WCI  31
KANSAS CITY    DRIZZLE   41  40  96 SE15      29.61F FOG
WICHITA        DRIZZLE   45  43  93 S9        29.55S FOG
HAYS           CLOUDY    41  30  65 NW15      29.55R
LIBERAL        MOCLDY    43  36  75 NW21      29.64R
GOODLAND       PTCLDY    35  29  78 NW14      29.64R WCI  26
$$



USA.gov is the U.S. government's official web portal to all federal, state and local government web resources and services.